Regional Weather Roundup
Issued by NWS

Home | Current Version | Previous Version | Graphics & Text | Print | Product List | Glossary On
Versions: 1 2 3 4 5 6 7 8 9 10 11 12 13 14 15 16 17 18 19 20 21 22 23 24 25 26 27 28 29 30 31 32 33 34 35 36 37 38 39 40 41 42 43 44 45 46 47 48 49 50
206
ASUS43 KBIS 281602
RWRND

NORTH DAKOTA REGIONAL WEATHER ROUNDUP
NATIONAL WEATHER SERVICE BISMARCK ND
1100 AM CDT WED SEP 28 2016

NOTE: "FAIR" INDICATES FEW OR NO CLOUDS BELOW 12,000 FEET WITH NO
SIGNIFICANT WEATHER AND/OR OBSTRUCTIONS TO VISIBILITY.


NDZ001>003-009>011-017-281700-
NORTHWEST NORTH DAKOTA

CITY           SKY/WX    TMP DP  RH WIND       PRES   REMARKS
WILLISTON      SUNNY     55  48  77 NE12      30.26R
MINOT          SUNNY     59  43  55 E5        30.27R
MINOT AFB      SUNNY     58  44  60 E3        30.26R
$$

NDZ018>021-031>035-040>046-281700-
SOUTHWEST NORTH DAKOTA

CITY           SKY/WX    TMP DP  RH WIND       PRES   REMARKS
BISMARCK       SUNNY     55  45  68 CALM      30.28R
DICKINSON      SUNNY     61  48  62 CALM      30.23R
GARRISON         N/A     59  42  53 SE5       30.26R
HETTINGER ARPT SUNNY     61  45  55 S7        30.25S
$$

NDZ004>008-012>016-024-026-027-054-281700-
NORTHEAST NORTH DAKOTA

CITY           SKY/WX    TMP DP  RH WIND       PRES   REMARKS
GRAND FORKS    CLOUDY    53  46  77 CALM      30.30R
GRND FRKS AFB  PTSUNNY   53  46  76 VRB3      30.31R
DEVILS LAKE    CLOUDY    49  44  83 E3        30.31R
$$

NDZ022-023-025-028>030-036>039-047>053-281700-
SOUTHEAST NORTH DAKOTA

CITY           SKY/WX    TMP DP  RH WIND       PRES   REMARKS
FARGO          CLOUDY    51  46  83 N6        30.29R
JAMESTOWN      CLOUDY    50  44  80 NE3       30.29R
$$





USA.gov is the U.S. government's official web portal to all federal, state and local government web resources and services.